| time (UTC) | temp F | wind direction | speed knots | gust knots | rain 1hr in | rain 24hr in | rain mn in | humidity % | barometer mb |
| 20260506202151 | 57 | 208 | 4.3 | 5.2 | 0.00 | 0.10 | 0.10 | 99 | 1019.2 |
| 20260506201649 | 57 | 112 | 1.7 | 1.7 | 0.07 | 0.10 | 0.10 | 99 | 1019.2 |
| 20260506201145 | 57 | 191 | 3.5 | 4.3 | 0.07 | 0.10 | 0.10 | 99 | 1018.9 |
| 20260506200642 | 57 | 178 | 2.6 | 2.6 | 0.00 | 0.09 | 0.09 | 99 | 1018.9 |
| 20260506200139 | 57 | 193 | 1.7 | 2.6 | 0.00 | 0.09 | 0.09 | 99 | 1019.2 |
| 20260506195635 | 57 | 223 | 2.6 | 4.3 | 0.00 | 0.09 | 0.09 | 99 | 1018.9 |
| 20260506195132 | 57 | 186 | 2.6 | 2.6 | 0.00 | 0.09 | 0.09 | 99 | 1018.9 |
| 20260506194629 | 57 | 198 | 1.7 | 4.3 | 0.00 | 0.09 | 0.09 | 99 | 1019.2 |
| 20260506194125 | 57 | 187 | 3.5 | 5.2 | 0.00 | 0.09 | 0.09 | 99 | 1019.2 |
| 20260506193623 | 57 | 180 | 4.3 | 5.2 | 0.00 | 0.09 | 0.09 | 99 | 1019.2 |
| 20260506193120 | 57 | 188 | 5.2 | 6.1 | 0.00 | 0.09 | 0.09 | 99 | 1019.2 |
| 20260506192617 | 57 | 188 | 5.2 | 7.0 | 0.00 | 0.09 | 0.09 | 99 | 1019.2 |
| 20260506192113 | 57 | 195 | 3.5 | 4.3 | 0.00 | 0.09 | 0.09 | 99 | 1019.2 |
| 20260506191610 | 57 | 194 | 7.0 | 7.8 | 0.00 | 0.09 | 0.09 | 99 | 1019.2 |
| 20260506191105 | 57 | 177 | 4.3 | 4.3 | 0.00 | 0.09 | 0.09 | 99 | 1019.5 |
| 20260506190603 | 58 | 192 | 4.3 | 5.2 | 0.00 | 0.09 | 0.09 | 99 | 1019.5 |
| 20260506190100 | 57 | 186 | 3.5 | 4.3 | 0.00 | 0.09 | 0.09 | 99 | 1019.5 |
| 20260506185557 | 57 | 195 | 3.5 | 4.3 | 0.00 | 0.09 | 0.09 | 99 | 1019.5 |
| 20260506185053 | 57 | 191 | 3.5 | 4.3 | 0.00 | 0.09 | 0.09 | 99 | 1019.9 |
| 20260506184551 | 57 | 152 | 3.5 | 4.3 | 0.00 | 0.09 | 0.09 | 99 | 1019.5 |
| 20260506184048 | 57 | 201 | 1.7 | 2.6 | 0.00 | 0.09 | 0.09 | 99 | 1019.5 |
| 20260506183544 | 57 | 194 | 5.2 | 7.8 | 0.00 | 0.09 | 0.09 | 99 | 1019.9 |
| 20260506183041 | 57 | 164 | 2.6 | 2.6 | 0.07 | 0.09 | 0.09 | 99 | 1019.9 |
| 20260506182538 | 57 | 146 | 4.3 | 6.1 | 0.12 | 0.09 | 0.09 | 99 | 1020.5 |
| 20260506182035 | 57 | 193 | 4.3 | 5.2 | 0.12 | 0.08 | 0.08 | 99 | 1020.2 |
| 20260506181533 | 57 | 190 | 2.6 | 2.6 | 0.07 | 0.07 | 0.07 | 99 | 1020.2 |
| 20260506181030 | 57 | 179 | 3.5 | 4.3 | 0.00 | 0.06 | 0.06 | 99 | 1019.9 |
| 20260506180526 | 57 | 181 | 2.6 | 2.6 | 0.05 | 0.06 | 0.06 | 99 | 1019.9 |
| 20260506180023 | 57 | 154 | 2.6 | 7.0 | 0.05 | 0.06 | 0.06 | 99 | 1019.9 |
| 20260506175520 | 57 | 192 | 2.6 | 2.6 | 0.00 | 0.05 | 0.05 | 99 | 1019.5 |
| 20260506175016 | 57 | 193 | 3.5 | 6.1 | 0.00 | 0.05 | 0.05 | 99 | 1019.9 |
| 20260506174515 | 57 | 209 | 5.2 | 6.1 | 0.07 | 0.05 | 0.05 | 99 | 1019.9 |
| 20260506174010 | 57 | 144 | 2.6 | 2.6 | 0.07 | 0.05 | 0.05 | 99 | 1020.2 |
| 20260506173508 | 58 | 159 | 4.3 | 6.1 | 0.05 | 0.04 | 0.04 | 98 | 1020.5 |
| 20260506173005 | 58 | 187 | 1.7 | 1.7 | 0.05 | 0.04 | 0.04 | 98 | 1020.5 |
| 20260506172502 | 58 | 187 | 2.6 | 4.3 | 0.07 | 0.03 | 0.03 | 98 | 1020.5 |
| 20260506171958 | 58 | 150 | 0.0 | 0.9 | 0.07 | 0.03 | 0.03 | 98 | 1020.9 |
| 20260506171456 | 58 | 160 | 0.0 | 0.9 | 0.05 | 0.02 | 0.02 | 97 | 1020.9 |
| 20260506170953 | 58 | 188 | 5.2 | 6.1 | 0.05 | 0.02 | 0.02 | 96 | 1020.9 |
| 20260506170449 | 58 | 205 | 3.5 | 4.3 | 0.00 | 0.01 | 0.01 | 96 | 1021.2 |
| 20260506165948 | 58 | 180 | 2.6 | 2.6 | 0.07 | 0.01 | 0.01 | 95 | 1020.9 |
| 20260506165446 | 59 | 186 | 2.6 | 2.6 | 0.07 | 0.01 | 0.01 | 94 | 1020.9 |
| 20260506164942 | 59 | 186 | 2.6 | 5.2 | 0.00 | 0.00 | 0.00 | 93 | 1021.2 |
| 20260506164439 | 59 | 261 | 4.3 | 7.8 | 0.00 | 0.00 | 0.00 | 92 | 1021.6 |
| 20260506163937 | 60 | 149 | 1.7 | 2.6 | 0.00 | 0.00 | 0.00 | 91 | 1021.2 |
| 20260506163432 | 60 | 149 | 4.3 | 6.1 | 0.00 | 0.00 | 0.00 | 89 | 1020.9 |
| 20260506162927 | 60 | 163 | 4.3 | 7.0 | 0.00 | 0.00 | 0.00 | 88 | 1021.2 |
| 20260506162425 | 61 | 194 | 7.0 | 9.6 | 0.00 | 0.00 | 0.00 | 87 | 1021.2 |
| 20260506161921 | 61 | 186 | 5.2 | 7.0 | 0.00 | 0.00 | 0.00 | 87 | 1021.6 |
| 20260506161420 | 61 | 175 | 8.7 | 11.3 | 0.00 | 0.00 | 0.00 | 86 | 1021.2 |
| 20260506160911 | 62 | 202 | 4.3 | 5.2 | 0.00 | 0.00 | 0.00 | 85 | 1021.2 |
| 20260506160409 | 62 | 159 | 1.7 | 1.7 | 0.00 | 0.00 | 0.00 | 85 | 1021.6 |
| 20260506155906 | 62 | 212 | 5.2 | 7.0 | 0.00 | 0.00 | 0.00 | 85 | 1021.6 |
| 20260506155403 | 62 | 170 | 6.1 | 7.0 | 0.00 | 0.00 | 0.00 | 85 | 1021.6 |
| 20260506153525 | 62 | 187 | 4.3 | 5.2 | 0.00 | 0.00 | 0.00 | 86 | 1021.9 |
| 20260506153023 | 62 | 180 | 5.2 | 6.1 | 0.00 | 0.00 | 0.00 | 85 | 1021.6 |
| 20260506152520 | 62 | 210 | 4.3 | 6.1 | 0.00 | 0.00 | 0.00 | 85 | 1021.6 |
| 20260506152018 | 62 | 190 | 2.6 | 4.3 | 0.00 | 0.00 | 0.00 | 86 | 1021.6 |
| 20260506151515 | 62 | 188 | 5.2 | 7.0 | 0.00 | 0.00 | 0.00 | 86 | 1021.6 |
| 20260506151012 | 62 | 84 | 2.6 | 4.3 | 0.00 | 0.00 | 0.00 | 86 | 1021.6 |
| 20260506150508 | 61 | 196 | 4.3 | 7.0 | 0.00 | 0.00 | 0.00 | 86 | 1021.6 |
| 20260506150006 | 62 | 217 | 5.2 | 7.0 | 0.00 | 0.00 | 0.00 | 85 | 1021.6 |
| 20260506145502 | 62 | 199 | 6.1 | 7.8 | 0.00 | 0.00 | 0.00 | 85 | 1021.2 |
| 20260506145000 | 62 | 169 | 6.1 | 7.8 | 0.00 | 0.00 | 0.00 | 85 | 1021.6 |
| 20260506144456 | 62 | 234 | 5.2 | 7.0 | 0.00 | 0.00 | 0.00 | 85 | 1021.6 |
| 20260506143954 | 62 | 216 | 7.8 | 9.6 | 0.00 | 0.00 | 0.00 | 84 | 1021.6 |
| 20260506143451 | 63 | 163 | 5.2 | 7.8 | 0.00 | 0.00 | 0.00 | 83 | 1021.6 |
| 20260506142950 | 63 | 172 | 0.0 | 0.0 | 0.00 | 0.00 | 0.00 | 83 | 1021.6 |
| 20260506142447 | 64 | 174 | 3.5 | 5.2 | 0.00 | 0.00 | 0.00 | 82 | 1021.6 |
| 20260506141944 | 64 | 175 | 7.0 | 8.7 | 0.00 | 0.00 | 0.00 | 82 | 1021.9 |
| 20260506141442 | 64 | 97 | 1.7 | 4.3 | 0.00 | 0.00 | 0.00 | 81 | 1021.6 |
| 20260506140941 | 65 | 170 | 2.6 | 5.2 | 0.00 | 0.00 | 0.00 | 82 | 1021.6 |
| 20260506140437 | 64 | 183 | 8.7 | 9.6 | 0.00 | 0.00 | 0.00 | 82 | 1021.6 |
| 20260506135934 | 63 | 212 | 2.6 | 8.7 | 0.00 | 0.00 | 0.00 | 83 | 1021.9 |
| 20260506135432 | 63 | 169 | 0.9 | 1.7 | 0.00 | 0.00 | 0.00 | 84 | 1021.9 |
| 20260506134927 | 63 | 154 | 0.0 | 0.0 | 0.00 | 0.00 | 0.00 | 84 | 1021.6 |
| 20260506134424 | 62 | 191 | 0.0 | 0.0 | 0.00 | 0.00 | 0.00 | 84 | 1021.6 |
| 20260506133921 | 62 | 229 | 2.6 | 7.0 | 0.00 | 0.00 | 0.00 | 85 | 1021.6 |
| 20260506133418 | 62 | 199 | 6.1 | 7.0 | 0.00 | 0.00 | 0.00 | 85 | 1021.6 |
| 20260506132914 | 62 | 137 | 0.0 | 0.0 | 0.00 | 0.00 | 0.00 | 85 | 1021.6 |
| 20260506132411 | 61 | 181 | 0.0 | 0.0 | 0.00 | 0.00 | 0.00 | 87 | 1021.6 |
| 20260506131909 | 61 | 172 | 0.9 | 4.3 | 0.00 | 0.00 | 0.00 | 87 | 1021.6 |
| 20260506131405 | 61 | 203 | 3.5 | 6.1 | 0.00 | 0.00 | 0.00 | 87 | 1021.2 |
| 20260506130902 | 61 | 189 | 0.9 | 2.6 | 0.00 | 0.00 | 0.00 | 86 | 1021.6 |
| 20260506130358 | 61 | 174 | 0.0 | 0.0 | 0.00 | 0.00 | 0.00 | 87 | 1021.6 |
| 20260506125857 | 62 | 214 | 0.0 | 0.0 | 0.00 | 0.00 | 0.00 | 87 | 1021.6 |
| 20260506125355 | 62 | 190 | 0.0 | 0.0 | 0.00 | 0.00 | 0.00 | 87 | 1021.6 |
| 20260506124853 | 62 | 175 | 0.0 | 0.0 | 0.00 | 0.00 | 0.00 | 87 | 1021.6 |
| 20260506124349 | 62 | 195 | 0.0 | 0.0 | 0.00 | 0.00 | 0.00 | 87 | 1021.6 |
| 20260506123848 | 62 | 183 | 0.0 | 0.9 | 0.00 | 0.00 | 0.00 | 86 | 1021.9 |
| 20260506123346 | 62 | 150 | 0.0 | 0.0 | 0.00 | 0.00 | 0.00 | 88 | 1022.2 |
| 20260506122843 | 61 | 200 | 0.0 | 0.0 | 0.00 | 0.00 | 0.00 | 88 | 1022.6 |
| 20260506122339 | 60 | 203 | 0.0 | 0.0 | 0.00 | 0.00 | 0.00 | 89 | 1022.2 |
| 20260506121838 | 60 | 196 | 7.0 | 8.7 | 0.00 | 0.00 | 0.00 | 89 | 1022.2 |
| 20260506121334 | 60 | 198 | 0.0 | 0.0 | 0.00 | 0.00 | 0.00 | 90 | 1022.6 |
| 20260506120831 | 60 | 199 | 0.0 | 0.0 | 0.00 | 0.00 | 0.00 | 90 | 1022.2 |
| 20260506120329 | 59 | 255 | 0.0 | 0.0 | 0.00 | 0.00 | 0.00 | 91 | 1022.2 |
| 20260506115826 | 59 | 185 | 0.0 | 0.0 | 0.00 | 0.00 | 0.00 | 92 | 1022.2 |
| 20260506115324 | 58 | 151 | 0.0 | 0.0 | 0.00 | 0.00 | 0.00 | 93 | 1021.9 |
| 20260506114822 | 58 | 185 | 0.9 | 1.7 | 0.00 | 0.00 | 0.00 | 93 | 1022.2 |
| 20260506114320 | 58 | 181 | 0.0 | 0.0 | 0.00 | 0.00 | 0.00 | 93 | 1022.2 |
| 20260506113818 | 58 | 199 | 0.0 | 0.0 | 0.00 | 0.00 | 0.00 | 93 | 1022.2 |
| 20260506113315 | 58 | 170 | 2.6 | 4.3 | 0.00 | 0.00 | 0.00 | 94 | 1021.9 |
| 20260506112812 | 57 | 212 | 0.0 | 0.0 | 0.00 | 0.00 | 0.00 | 95 | 1022.2 |
| 20260506112309 | 57 | 170 | 3.5 | 4.3 | 0.00 | 0.00 | 0.00 | 95 | 1022.2 |
| 20260506111806 | 56 | 180 | 1.7 | 2.6 | 0.00 | 0.00 | 0.00 | 96 | 1022.2 |
| 20260506111304 | 56 | 166 | 6.1 | 6.1 | 0.00 | 0.00 | 0.00 | 96 | 1022.6 |
| 20260506110802 | 56 | 208 | 1.7 | 2.6 | 0.00 | 0.00 | 0.00 | 96 | 1022.2 |
| 20260506110258 | 56 | 171 | 0.9 | 1.7 | 0.00 | 0.00 | 0.00 | 96 | 1022.2 |
| 20260506105755 | 56 | 187 | 2.6 | 2.6 | 0.00 | 0.00 | 0.00 | 96 | 1022.2 |
| 20260506105252 | 56 | 170 | 0.9 | 0.9 | 0.00 | 0.00 | 0.00 | 97 | 1021.9 |
| 20260506104750 | 55 | 192 | 4.3 | 5.2 | 0.00 | 0.00 | 0.00 | 97 | 1022.2 |
| 20260506104247 | 55 | 195 | 3.5 | 4.3 | 0.00 | 0.00 | 0.00 | 97 | 1021.9 |
| 20260506103744 | 55 | 205 | 1.7 | 1.7 | 0.00 | 0.00 | 0.00 | 97 | 1022.2 |
| 20260506103242 | 55 | 193 | 2.6 | 4.3 | 0.00 | 0.00 | 0.00 | 97 | 1022.2 |
| 20260506102739 | 55 | 195 | 3.5 | 4.3 | 0.00 | 0.00 | 0.00 | 97 | 1021.9 |
| 20260506102237 | 55 | 192 | 2.6 | 2.6 | 0.00 | 0.00 | 0.00 | 97 | 1021.9 |
| 20260506101734 | 55 | 192 | 0.9 | 2.6 | 0.00 | 0.00 | 0.00 | 97 | 1021.9 |
| 20260506101230 | 55 | 179 | 0.9 | 0.9 | 0.00 | 0.00 | 0.00 | 97 | 1021.9 |
| 20260506100728 | 55 | 188 | 2.6 | 2.6 | 0.00 | 0.00 | 0.00 | 97 | 1021.9 |
| 20260506100226 | 55 | 191 | 1.7 | 1.7 | 0.00 | 0.00 | 0.00 | 97 | 1022.2 |
| 20260506095724 | 55 | 208 | 5.2 | 6.1 | 0.00 | 0.00 | 0.00 | 97 | 1022.2 |
| 20260506095221 | 55 | 204 | 1.7 | 1.7 | 0.00 | 0.00 | 0.00 | 97 | 1021.9 |
| 20260506094718 | 55 | 195 | 3.5 | 6.1 | 0.00 | 0.00 | 0.00 | 97 | 1022.2 |
| 20260506094216 | 55 | 169 | 0.9 | 1.7 | 0.00 | 0.00 | 0.00 | 97 | 1021.9 |
| 20260506093715 | 55 | 206 | 0.9 | 1.7 | 0.00 | 0.00 | 0.00 | 97 | 1021.9 |
| 20260506093211 | 55 | 256 | 0.9 | 1.7 | 0.00 | 0.00 | 0.00 | 97 | 1021.9 |
| 20260506092709 | 55 | 208 | 2.6 | 2.6 | 0.00 | 0.00 | 0.00 | 96 | 1022.2 |
| 20260506092206 | 55 | 223 | 2.6 | 2.6 | 0.00 | 0.00 | 0.00 | 96 | 1021.9 |
| 20260506091704 | 55 | 209 | 3.5 | 4.3 | 0.00 | 0.00 | 0.00 | 97 | 1021.9 |
| 20260506091201 | 55 | 149 | 0.9 | 0.9 | 0.00 | 0.00 | 0.00 | 96 | 1021.9 |
| 20260506090659 | 55 | 53 | 0.9 | 0.9 | 0.00 | 0.00 | 0.00 | 96 | 1022.2 |
| 20260506090155 | 55 | 193 | 0.0 | 0.9 | 0.00 | 0.00 | 0.00 | 96 | 1022.2 |
| 20260506085652 | 55 | 185 | 0.9 | 1.7 | 0.00 | 0.00 | 0.00 | 96 | 1022.2 |
| 20260506085148 | 55 | 164 | 2.6 | 2.6 | 0.00 | 0.00 | 0.00 | 96 | 1022.6 |
| 20260506084645 | 55 | 165 | 2.6 | 2.6 | 0.00 | 0.00 | 0.00 | 96 | 1022.2 |
| 20260506084142 | 55 | 207 | 1.7 | 2.6 | 0.00 | 0.00 | 0.00 | 95 | 1022.2 |
| 20260506083639 | 55 | 181 | 0.9 | 1.7 | 0.00 | 0.00 | 0.00 | 95 | 1022.2 |
| 20260506083136 | 55 | 169 | 2.6 | 4.3 | 0.00 | 0.00 | 0.00 | 95 | 1022.2 |
| 20260506082633 | 55 | 153 | 0.9 | 0.9 | 0.00 | 0.00 | 0.00 | 95 | 1022.2 |
| 20260506082128 | 55 | 181 | 0.9 | 0.9 | 0.00 | 0.00 | 0.00 | 95 | 1022.2 |
| 20260506081627 | 55 | 185 | 1.7 | 2.6 | 0.00 | 0.00 | 0.00 | 95 | 1022.2 |
| 20260506081124 | 55 | 207 | 1.7 | 2.6 | 0.00 | 0.00 | 0.00 | 95 | 1021.9 |
| 20260506080622 | 55 | 177 | 3.5 | 5.2 | 0.00 | 0.00 | 0.00 | 95 | 1022.2 |
| 20260506080118 | 56 | 142 | 1.7 | 1.7 | 0.00 | 0.00 | 0.00 | 95 | 1022.6 |
| 20260506073102 | 56 | 159 | 3.5 | 4.3 | 0.00 | 0.00 | 0.00 | 93 | 1022.2 |
| 20260506072558 | 56 | 161 | 2.6 | 2.6 | 0.00 | 0.00 | 0.00 | 93 | 1022.2 |
| 20260506072057 | 56 | 130 | 0.9 | 1.7 | 0.00 | 0.00 | 0.00 | 93 | 1022.6 |
| 20260506071554 | 57 | 161 | 2.6 | 2.6 | 0.00 | 0.00 | 0.00 | 93 | 1022.6 |
| 20260506071051 | 57 | 180 | 1.7 | 1.7 | 0.00 | 0.00 | 0.00 | 92 | 1022.6 |
| 20260506070548 | 57 | 163 | 2.6 | 2.6 | 0.00 | 0.00 | 0.00 | 92 | 1022.6 |
| 20260506062023 | 57 | 140 | 0.9 | 1.7 | 0.00 | 0.00 | 0.00 | 91 | 1022.2 |
| 20260506061518 | 57 | 138 | 0.9 | 2.6 | 0.00 | 0.00 | 0.00 | 91 | 1022.2 |
| 20260506061016 | 57 | 193 | 2.6 | 4.3 | 0.00 | 0.00 | 0.00 | 90 | 1022.2 |
| 20260506060515 | 57 | 194 | 7.0 | 8.7 | 0.00 | 0.00 | 0.00 | 90 | 1022.2 |
| 20260506050943 | 58 | 176 | 2.6 | 2.6 | 0.00 | 0.00 | 0.00 | 88 | 1022.6 |
| 20260506050441 | 59 | 185 | 2.6 | 2.6 | 0.00 | 0.00 | 0.00 | 88 | 1023.0 |
| 20260506044931 | 59 | 154 | 0.9 | 0.9 | 0.00 | 0.00 | 0.00 | 86 | 1022.6 |
| 20260506044430 | 60 | 229 | 0.0 | 0.0 | 0.00 | 0.00 | 0.00 | 86 | 1022.2 |
| 20260506043926 | 60 | 189 | 0.0 | 0.0 | 0.00 | 0.00 | 0.00 | 86 | 1022.6 |
| 20260506043423 | 60 | 188 | 0.0 | 0.0 | 0.00 | 0.00 | 0.00 | 85 | 1023.0 |
| 20260506042921 | 60 | 191 | 0.9 | 2.6 | 0.00 | 0.00 | 0.00 | 85 | 1022.6 |
| 20260506042420 | 60 | 165 | 0.0 | 0.0 | 0.00 | 0.00 | 0.00 | 84 | 1022.2 |
| 20260506041918 | 60 | 182 | 0.0 | 0.0 | 0.00 | 0.00 | 0.00 | 84 | 1023.0 |
| 20260506041415 | 60 | 193 | 0.0 | 0.9 | 0.00 | 0.00 | 0.00 | 84 | 1023.0 |
| 20260506040912 | 61 | 192 | 0.0 | 0.0 | 0.00 | 0.00 | 0.00 | 83 | 1022.6 |
| 20260506040410 | 61 | 178 | 0.0 | 0.0 | 0.00 | 0.00 | 0.00 | 82 | 1022.6 |
| 20260506035906 | 61 | 178 | 1.7 | 5.2 | 0.00 | 0.00 | 0.00 | 82 | 1022.6 |
| 20260506035404 | 61 | 183 | 1.7 | 5.2 | 0.00 | 0.00 | 0.00 | 82 | 1022.6 |
| 20260506034900 | 61 | 174 | 0.0 | 0.9 | 0.00 | 0.00 | 0.00 | 81 | 1022.6 |
| 20260506034358 | 61 | 172 | 2.6 | 4.3 | 0.00 | 0.00 | 0.00 | 81 | 1022.6 |
| 20260506033854 | 61 | 202 | 0.0 | 1.7 | 0.00 | 0.00 | 0.00 | 81 | 1022.6 |
| 20260506033351 | 62 | 167 | 0.9 | 4.3 | 0.00 | 0.00 | 0.00 | 80 | 1023.0 |
| 20260506032848 | 62 | 211 | 2.6 | 4.3 | 0.00 | 0.00 | 0.00 | 80 | 1023.0 |
| 20260506032345 | 62 | 188 | 0.9 | 4.3 | 0.00 | 0.00 | 0.00 | 79 | 1022.6 |
| 20260506031842 | 62 | 212 | 1.7 | 7.8 | 0.00 | 0.00 | 0.00 | 79 | 1023.0 |
| 20260506031339 | 62 | 218 | 0.9 | 5.2 | 0.00 | 0.00 | 0.00 | 78 | 1022.6 |
| 20260506030837 | 62 | 183 | 0.0 | 0.0 | 0.00 | 0.00 | 0.00 | 77 | 1023.0 |
| 20260506030335 | 62 | 199 | 3.5 | 7.8 | 0.00 | 0.00 | 0.00 | 77 | 1022.6 |
| 20260506025831 | 62 | 166 | 0.0 | 0.0 | 0.00 | 0.00 | 0.00 | 76 | 1022.6 |
| 20260506025327 | 62 | 190 | 0.9 | 7.8 | 0.00 | 0.00 | 0.00 | 76 | 1022.6 |
| 20260506024825 | 62 | 190 | 4.3 | 6.1 | 0.00 | 0.00 | 0.00 | 75 | 1022.6 |
| 20260506024322 | 62 | 191 | 0.0 | 0.0 | 0.00 | 0.00 | 0.00 | 76 | 1022.6 |
| 20260506023818 | 63 | 214 | 10.4 | 15.6 | 0.00 | 0.00 | 0.00 | 75 | 1022.6 |
| 20260506023315 | 63 | 185 | 2.6 | 7.0 | 0.00 | 0.00 | 0.00 | 75 | 1022.6 |
| 20260506022811 | 62 | 182 | 0.9 | 1.7 | 0.00 | 0.00 | 0.00 | 75 | 1022.6 |
| 20260506022309 | 62 | 156 | 0.0 | 0.0 | 0.00 | 0.00 | 0.00 | 75 | 1022.6 |
| 20260506021807 | 62 | 169 | 2.6 | 5.2 | 0.00 | 0.00 | 0.00 | 75 | 1022.6 |
| 20260506021304 | 62 | 192 | 0.0 | 0.0 | 0.00 | 0.00 | 0.00 | 75 | 1022.6 |
| 20260506020800 | 62 | 155 | 0.0 | 0.0 | 0.00 | 0.00 | 0.00 | 75 | 1022.6 |
| 20260506020258 | 62 | 137 | 0.0 | 0.9 | 0.00 | 0.00 | 0.00 | 75 | 1022.6 |
| 20260506015756 | 62 | 180 | 2.6 | 4.3 | 0.00 | 0.00 | 0.00 | 75 | 1022.2 |
| 20260506015253 | 62 | 165 | 0.0 | 0.0 | 0.00 | 0.00 | 0.00 | 75 | 1022.6 |
| 20260506014750 | 62 | 193 | 0.0 | 0.0 | 0.00 | 0.00 | 0.00 | 75 | 1022.6 |
| 20260506014246 | 62 | 179 | 2.6 | 2.6 | 0.00 | 0.00 | 0.00 | 75 | 1022.6 |
| 20260506013743 | 62 | 161 | 1.7 | 4.3 | 0.00 | 0.00 | 0.00 | 75 | 1022.6 |
| 20260506013241 | 62 | 322 | 0.0 | 0.9 | 0.00 | 0.00 | 0.00 | 74 | 1022.2 |
| 20260506012737 | 62 | 205 | 0.0 | 0.9 | 0.00 | 0.00 | 0.00 | 74 | 1022.2 |
| 20260506012234 | 62 | 191 | 0.0 | 0.0 | 0.00 | 0.00 | 0.00 | 75 | 1022.2 |
| 20260506011731 | 62 | 199 | 5.2 | 7.0 | 0.00 | 0.00 | 0.00 | 75 | 1022.2 |
| 20260506011227 | 62 | 161 | 0.0 | 0.0 | 0.00 | 0.00 | 0.00 | 74 | 1021.9 |
| 20260506010726 | 62 | 207 | 0.0 | 0.0 | 0.00 | 0.00 | 0.00 | 74 | 1021.9 |
| 20260506010223 | 63 | 198 | 0.0 | 0.0 | 0.00 | 0.00 | 0.00 | 74 | 1021.9 |
| 20260506005720 | 63 | 203 | 0.9 | 7.0 | 0.00 | 0.00 | 0.00 | 73 | 1021.9 |
| 20260506005217 | 63 | 190 | 0.0 | 1.7 | 0.00 | 0.00 | 0.00 | 73 | 1021.6 |
| 20260506004713 | 63 | 186 | 0.0 | 0.9 | 0.00 | 0.00 | 0.00 | 72 | 1021.9 |
| 20260506004211 | 63 | 218 | 0.0 | 0.0 | 0.00 | 0.00 | 0.00 | 71 | 1021.6 |
| 20260506003706 | 64 | 229 | 7.8 | 9.6 | 0.00 | 0.00 | 0.00 | 71 | 1021.2 |
| 20260506003203 | 64 | 195 | 0.0 | 1.7 | 0.00 | 0.00 | 0.00 | 71 | 1021.6 |
| 20260506002659 | 64 | 188 | 0.0 | 0.0 | 0.00 | 0.00 | 0.00 | 71 | 1021.6 |
| 20260506002155 | 64 | 174 | 0.0 | 0.0 | 0.00 | 0.00 | 0.00 | 71 | 1021.2 |
| 20260506001651 | 64 | 219 | 2.6 | 6.1 | 0.00 | 0.00 | 0.00 | 70 | 1021.2 |
| 20260506001148 | 64 | 200 | 0.0 | 0.0 | 0.00 | 0.00 | 0.00 | 71 | 1020.9 |
| 20260506000645 | 64 | 207 | 4.3 | 7.8 | 0.00 | 0.00 | 0.00 | 69 | 1021.2 |
| 20260506000143 | 64 | 195 | 1.7 | 5.2 | 0.00 | 0.00 | 0.00 | 69 | 1021.2 |
| 20260505235641 | 64 | 197 | 10.4 | 14.8 | 0.00 | 0.00 | 0.00 | 69 | 1020.9 |
| 20260505235138 | 65 | 184 | 4.3 | 8.7 | 0.00 | 0.00 | 0.00 | 69 | 1020.9 |
| 20260505234635 | 64 | 195 | 0.0 | 0.0 | 0.00 | 0.00 | 0.00 | 70 | 1020.9 |
| 20260505234131 | 64 | 193 | 0.9 | 5.2 | 0.00 | 0.00 | 0.00 | 71 | 1020.9 |
| 20260505233629 | 64 | 195 | 0.0 | 0.0 | 0.00 | 0.00 | 0.00 | 71 | 1020.9 |
| 20260505233126 | 65 | 198 | 4.3 | 9.6 | 0.00 | 0.00 | 0.00 | 71 | 1020.5 |
| 20260505232623 | 65 | 187 | 7.0 | 8.7 | 0.00 | 0.00 | 0.00 | 69 | 1020.9 |
| 20260505232121 | 65 | 156 | 0.0 | 0.0 | 0.00 | 0.00 | 0.00 | 70 | 1020.9 |
| 20260505231618 | 66 | 204 | 0.0 | 0.0 | 0.00 | 0.00 | 0.00 | 69 | 1020.5 |
| 20260505231116 | 66 | 179 | 2.6 | 7.0 | 0.00 | 0.00 | 0.00 | 69 | 1020.2 |
| 20260505230614 | 66 | 205 | 11.3 | 13.9 | 0.00 | 0.00 | 0.00 | 68 | 1020.5 |
| 20260505230110 | 66 | 201 | 0.0 | 0.0 | 0.00 | 0.00 | 0.00 | 70 | 1020.5 |
| 20260505225607 | 66 | 206 | 1.7 | 5.2 | 0.00 | 0.00 | 0.00 | 69 | 1020.5 |
| 20260505225103 | 66 | 193 | 0.0 | 0.0 | 0.00 | 0.00 | 0.00 | 70 | 1020.2 |
| 20260505224600 | 66 | 162 | 0.0 | 0.0 | 0.00 | 0.00 | 0.00 | 70 | 1020.2 |
| 20260505224057 | 66 | 200 | 0.0 | 0.0 | 0.00 | 0.00 | 0.00 | 70 | 1020.2 |
| 20260505223554 | 66 | 166 | 0.0 | 0.0 | 0.00 | 0.00 | 0.00 | 69 | 1020.5 |
| 20260505223050 | 66 | 200 | 1.7 | 4.3 | 0.00 | 0.00 | 0.00 | 69 | 1020.5 |
| 20260505222547 | 67 | 158 | 0.0 | 0.0 | 0.00 | 0.00 | 0.00 | 69 | 1020.5 |
| 20260505222043 | 67 | 192 | 2.6 | 7.0 | 0.00 | 0.00 | 0.00 | 68 | 1020.5 |
| 20260505221540 | 67 | 195 | 4.3 | 7.0 | 0.00 | 0.00 | 0.00 | 68 | 1020.2 |
| 20260505221036 | 67 | 186 | 0.0 | 0.0 | 0.00 | 0.00 | 0.00 | 68 | 1020.5 |
| 20260505220534 | 67 | 207 | 7.0 | 7.0 | 0.00 | 0.00 | 0.00 | 68 | 1020.5 |
| 20260505220032 | 67 | 195 | 0.0 | 0.9 | 0.00 | 0.00 | 0.00 | 68 | 1020.5 |
| 20260505215530 | 68 | 190 | 1.7 | 5.2 | 0.00 | 0.00 | 0.00 | 68 | 1020.5 |
| 20260505215027 | 68 | 170 | 0.9 | 1.7 | 0.00 | 0.00 | 0.00 | 67 | 1020.2 |
| 20260505214525 | 69 | 154 | 0.9 | 4.3 | 0.00 | 0.00 | 0.00 | 66 | 1020.5 |
| 20260505214022 | 69 | 222 | 2.6 | 4.3 | 0.00 | 0.00 | 0.00 | 66 | 1020.2 |
| 20260505213519 | 69 | 214 | 1.7 | 5.2 | 0.00 | 0.00 | 0.00 | 67 | 1020.2 |
| 20260505213015 | 69 | 153 | 0.9 | 1.7 | 0.00 | 0.00 | 0.00 | 67 | 1019.9 |
| 20260505212512 | 69 | 141 | 10.4 | 12.2 | 0.00 | 0.00 | 0.00 | 65 | 1020.2 |
| 20260505212009 | 69 | 184 | 6.1 | 11.3 | 0.00 | 0.00 | 0.00 | 65 | 1019.9 |
| 20260505211507 | 69 | 188 | 4.3 | 7.0 | 0.00 | 0.00 | 0.00 | 67 | 1019.9 |
| 20260505211003 | 68 | 185 | 1.7 | 6.1 | 0.00 | 0.00 | 0.00 | 67 | 1020.2 |
| 20260505210500 | 69 | 188 | 4.3 | 8.7 | 0.00 | 0.00 | 0.00 | 66 | 1020.2 |
| 20260505205956 | 70 | 163 | 0.0 | 0.0 | 0.00 | 0.00 | 0.00 | 65 | 1020.2 |
| 20260505205455 | 69 | 193 | 0.0 | 0.0 | 0.00 | 0.00 | 0.00 | 66 | 1020.5 |
| 20260505204951 | 70 | 178 | 6.1 | 7.8 | 0.00 | 0.00 | 0.00 | 65 | 1020.2 |
| 20260505204449 | 69 | 197 | 3.5 | 6.1 | 0.00 | 0.00 | 0.00 | 66 | 1019.9 |
| 20260505203946 | 70 | 171 | 3.5 | 8.7 | 0.00 | 0.00 | 0.00 | 64 | 1020.2 |
| 20260505203443 | 70 | 221 | 2.6 | 4.3 | 0.00 | 0.00 | 0.00 | 65 | 1020.2 |
| 20260505202939 | 70 | 187 | 3.5 | 6.1 | 0.00 | 0.00 | 0.00 | 66 | 1020.2 |
| 20260505202436 | 70 | 183 | 3.5 | 6.1 | 0.00 | 0.00 | 0.00 | 65 | 1020.5 |